UAL1975 KLAS-KEWR

Flight info

Callsign UAL1975
Flight time N/A
Altitude 37000
Route GIDGT3 TUKRR DVC HBU MCK OVR DSM EVOTE NELLS KEEHO J584 SLT FQM3
Aircraft B38M/M-SDE1FGHILORVWXY/HB1

Departure

Time 2026-05-05 19:17
Airport Harry Reid International Airport (KLAS)

Arrival

Time N/A
Airport Newark Liberty International Airport (KEWR)
Time Latitude Longitude Altitude Speed Heading
2026-05-05 18:25 36.08347 -115.13923 2190 ft 0 kts 180°
2026-05-05 18:28 36.08348 -115.13923 2190 ft 0 kts 180°
2026-05-05 18:40 36.08349 -115.13923 2190 ft 0 kts 180°
2026-05-05 18:52 36.08350 -115.13923 2190 ft 0 kts 180°
2026-05-05 19:02 36.08367 -115.13923 2193 ft 4 kts 180°
2026-05-05 19:03 36.08391 -115.13922 2192 ft 4 kts 186°
2026-05-05 19:03 36.08411 -115.13911 2194 ft 4 kts 242°
2026-05-05 19:03 36.08416 -115.13882 2190 ft 2 kts 270°
2026-05-05 19:03 36.08416 -115.13875 2190 ft 0 kts 270°
2026-05-05 19:07 36.08416 -115.13882 2190 ft 1 kts 269°
2026-05-05 19:08 36.08415 -115.13901 2191 ft 3 kts 268°
2026-05-05 19:08 36.08414 -115.13931 2192 ft 4 kts 269°
2026-05-05 19:08 36.08414 -115.13973 2191 ft 6 kts 271°
2026-05-05 19:08 36.08403 -115.14019 2191 ft 6 kts 231°
2026-05-05 19:09 36.08372 -115.14060 2192 ft 7 kts 225°
2026-05-05 19:09 36.08332 -115.14107 2192 ft 8 kts 223°
2026-05-05 19:09 36.08284 -115.14155 2193 ft 9 kts 202°
2026-05-05 19:09 36.08216 -115.14157 2193 ft 10 kts 175°
2026-05-05 19:10 36.08167 -115.14156 2192 ft 11 kts 180°
2026-05-05 19:10 36.08087 -115.14157 2192 ft 12 kts 181°
2026-05-05 19:10 36.08000 -115.14159 2190 ft 13 kts 176°
2026-05-05 19:10 36.07926 -115.14100 2190 ft 14 kts 132°
2026-05-05 19:11 36.07839 -115.13978 2191 ft 14 kts 117°
2026-05-05 19:11 36.07828 -115.13869 2193 ft 12 kts 91°
2026-05-05 19:11 36.07826 -115.13800 2191 ft 13 kts 91°
2026-05-05 19:11 36.07825 -115.13687 2191 ft 14 kts 90°
2026-05-05 19:12 36.07825 -115.13565 2191 ft 15 kts 90°
2026-05-05 19:12 36.07825 -115.13390 2191 ft 16 kts 89°
2026-05-05 19:12 36.07825 -115.13299 2191 ft 16 kts 90°
2026-05-05 19:12 36.07826 -115.13102 2191 ft 18 kts 90°
2026-05-05 19:13 36.07826 -115.12995 2194 ft 19 kts 90°
2026-05-05 19:13 36.07827 -115.12778 2194 ft 20 kts 90°
2026-05-05 19:13 36.07828 -115.12603 2194 ft 19 kts 90°
2026-05-05 19:13 36.07828 -115.12457 2194 ft 17 kts 90°
2026-05-05 19:14 36.07828 -115.12353 2192 ft 18 kts 90°
2026-05-05 19:14 36.07796 -115.12212 2190 ft 12 kts 124°
2026-05-05 19:14 36.07782 -115.12189 2193 ft 1 kts 129°
2026-05-05 19:14 36.07773 -115.12177 2192 ft 5 kts 130°
2026-05-05 19:15 36.07726 -115.12130 2191 ft 13 kts 163°
2026-05-05 19:15 36.07664 -115.12130 2192 ft 9 kts 209°
2026-05-05 19:15 36.07645 -115.12179 2192 ft 2 kts 264°
2026-05-05 19:15 36.07645 -115.12184 2192 ft 0 kts 265°
2026-05-05 19:16 36.07644 -115.12189 2192 ft 1 kts 266°
2026-05-05 19:16 36.07644 -115.12245 2192 ft 14 kts 270°
2026-05-05 19:16 36.07644 -115.12421 2190 ft 52 kts 269°
2026-05-05 19:17 36.07642 -115.13128 2193 ft 111 kts 270°
2026-05-05 19:17 36.07639 -115.14755 2198 ft 170 kts 269°
2026-05-05 19:17 36.07667 -115.16279 2473 ft 186 kts 271°
2026-05-05 19:17 36.07703 -115.17363 2858 ft 189 kts 271°
2026-05-05 19:18 36.07760 -115.19606 3594 ft 199 kts 270°
2026-05-05 19:18 36.07780 -115.21325 4238 ft 203 kts 270°
2026-05-05 19:18 36.07786 -115.22525 4506 ft 217 kts 268°
2026-05-05 19:18 36.07736 -115.25046 5373 ft 223 kts 269°
2026-05-05 19:19 36.08116 -115.26970 5807 ft 242 kts 299°
2026-05-05 19:19 36.08838 -115.28057 6095 ft 254 kts 320°
2026-05-05 19:19 36.10446 -115.28953 6845 ft 255 kts 347°
2026-05-05 19:19 36.12205 -115.29433 7507 ft 261 kts 348°
2026-05-05 19:20 36.14024 -115.29561 7958 ft 275 kts 12°
2026-05-05 19:20 36.15774 -115.28532 8463 ft 282 kts 43°
2026-05-05 19:20 36.16943 -115.26601 9318 ft 281 kts 61°
2026-05-05 19:20 36.18009 -115.23642 10221 ft 287 kts 68°
2026-05-05 19:21 36.18780 -115.21282 10577 ft 305 kts 68°
2026-05-05 19:21 36.19508 -115.18735 10870 ft 322 kts 79°
2026-05-05 19:21 36.19594 -115.15931 11455 ft 328 kts 90°
2026-05-05 19:21 36.19606 -115.13082 12123 ft 333 kts 90°
2026-05-05 19:22 36.19615 -115.10234 12806 ft 337 kts 90°
2026-05-05 19:22 36.19620 -115.07315 13543 ft 341 kts 90°
2026-05-05 19:22 36.19622 -115.04352 14222 ft 345 kts 90°
2026-05-05 19:22 36.19623 -115.01366 14939 ft 347 kts 90°
2026-05-05 19:23 36.19622 -114.98408 15704 ft 348 kts 90°
2026-05-05 19:23 36.19621 -114.95400 16424 ft 351 kts 90°
2026-05-05 19:23 36.19620 -114.93392 16840 ft 354 kts 90°
2026-05-05 19:23 36.19617 -114.90327 17541 ft 356 kts 90°
2026-05-05 19:24 36.19612 -114.86205 18370 ft 361 kts 90°
2026-05-05 19:24 36.19608 -114.83061 18845 ft 366 kts 90°
2026-05-05 19:24 36.19604 -114.80970 19271 ft 366 kts 89°
2026-05-05 19:24 36.19596 -114.76766 20003 ft 370 kts 89°
2026-05-05 19:25 36.19589 -114.73564 20506 ft 374 kts 89°
2026-05-05 19:25 36.19584 -114.71429 20897 ft 374 kts 89°
2026-05-05 19:25 36.19577 -114.68187 21441 ft 377 kts 89°
2026-05-05 19:25 36.19568 -114.63806 22119 ft 382 kts 89°
2026-05-05 19:26 36.19564 -114.61623 22484 ft 383 kts 89°
2026-05-05 19:26 36.19556 -114.58308 23002 ft 386 kts 89°
2026-05-05 19:26 36.19547 -114.55008 23456 ft 389 kts 89°
2026-05-05 19:26 36.19537 -114.51640 23888 ft 391 kts 89°
2026-05-05 19:27 36.19526 -114.48255 24312 ft 394 kts 89°
2026-05-05 19:27 36.19514 -114.44849 24712 ft 397 kts 89°
2026-05-05 19:27 36.19501 -114.41411 25139 ft 399 kts 89°
2026-05-05 19:27 36.19487 -114.38005 25520 ft 402 kts 90°
2026-05-05 19:28 36.19472 -114.34520 25876 ft 405 kts 90°
2026-05-05 19:28 36.19456 -114.31026 26322 ft 406 kts 90°
2026-05-05 19:28 36.19442 -114.26349 26747 ft 411 kts 87°
2026-05-05 19:28 36.19937 -114.22872 27161 ft 410 kts 70°
2026-05-05 19:29 36.20990 -114.19578 27494 ft 413 kts 68°
2026-05-05 19:29 36.21690 -114.17377 27667 ft 417 kts 68°
2026-05-05 19:29 36.22769 -114.14039 28079 ft 418 kts 68°
2026-05-05 19:29 36.24230 -114.09586 28539 ft 421 kts 68°
2026-05-05 19:30 36.25345 -114.06213 28851 ft 424 kts 68°
2026-05-05 19:30 36.26470 -114.02813 29102 ft 429 kts 68°
2026-05-05 19:30 36.27607 -113.99370 29375 ft 432 kts 68°
2026-05-05 19:30 36.28751 -113.95907 29730 ft 434 kts 68°
2026-05-05 19:31 36.29897 -113.92432 29999 ft 437 kts 68°
2026-05-05 19:31 36.31049 -113.88933 30231 ft 440 kts 68°
2026-05-05 19:31 36.32200 -113.85437 30440 ft 443 kts 68°
2026-05-05 19:31 36.33367 -113.81883 30662 ft 446 kts 68°
2026-05-05 19:32 36.34546 -113.78293 30886 ft 450 kts 68°
2026-05-05 19:32 36.35728 -113.74687 31092 ft 453 kts 68°
2026-05-05 19:32 36.36918 -113.71054 31258 ft 457 kts 68°
2026-05-05 19:32 36.38122 -113.67373 31500 ft 459 kts 68°
2026-05-05 19:33 36.39327 -113.63684 31700 ft 463 kts 68°
2026-05-05 19:33 36.40521 -113.60022 31926 ft 465 kts 68°
2026-05-05 19:33 36.41347 -113.57488 32081 ft 467 kts 68°
2026-05-05 19:33 36.42550 -113.53794 32309 ft 469 kts 68°
2026-05-05 19:34 36.43773 -113.50031 32539 ft 471 kts 68°
2026-05-05 19:34 36.45002 -113.46246 32786 ft 473 kts 68°
2026-05-05 19:34 36.46236 -113.42439 33055 ft 474 kts 69°
2026-05-05 19:35 36.48714 -113.34783 33443 ft 479 kts 69°
2026-05-05 19:35 36.49958 -113.30931 33707 ft 480 kts 69°
2026-05-05 19:35 36.51203 -113.27074 33939 ft 481 kts 69°
2026-05-05 19:35 36.52435 -113.23247 34148 ft 482 kts 69°
2026-05-05 19:36 36.53679 -113.19382 34387 ft 482 kts 69°
2026-05-05 19:36 36.54927 -113.15498 34622 ft 483 kts 69°
2026-05-05 19:36 36.56174 -113.11614 34855 ft 483 kts 69°
2026-05-05 19:36 36.57417 -113.07730 35017 ft 485 kts 69°
2026-05-05 19:37 36.58673 -113.03809 35143 ft 488 kts 69°
2026-05-05 19:37 36.59925 -112.99891 35487 ft 485 kts 69°
2026-05-05 19:37 36.61164 -112.96010 35874 ft 481 kts 69°
2026-05-05 19:37 36.62398 -112.92136 36087 ft 481 kts 69°
2026-05-05 19:38 36.63618 -112.88305 36275 ft 482 kts 69°
2026-05-05 19:38 36.64451 -112.85684 36408 ft 482 kts 69°
2026-05-05 19:38 36.65687 -112.81793 36588 ft 483 kts 69°
2026-05-05 19:38 36.67322 -112.76635 36786 ft 483 kts 70°
2026-05-05 19:39 36.68141 -112.74050 36837 ft 484 kts 70°
2026-05-05 19:39 36.71023 -112.64933 36833 ft 485 kts 70°
2026-05-05 19:40 36.73494 -112.57091 36838 ft 485 kts 70°
2026-05-05 19:40 36.75545 -112.50564 36837 ft 485 kts 70°
2026-05-05 19:41 36.78406 -112.41438 36826 ft 487 kts 70°
2026-05-05 19:41 36.80882 -112.33517 36835 ft 491 kts 70°
2026-05-05 19:42 36.83358 -112.25573 36833 ft 490 kts 70°
2026-05-05 19:42 36.85815 -112.17667 36815 ft 490 kts 70°
2026-05-05 19:43 36.88277 -112.09721 36796 ft 492 kts 70°
2026-05-05 19:43 36.90744 -112.01743 36803 ft 495 kts 70°
2026-05-05 19:44 36.93223 -111.93699 36794 ft 494 kts 70°
2026-05-05 19:44 36.95678 -111.85710 36780 ft 494 kts 71°
2026-05-05 19:45 36.98144 -111.77662 36746 ft 495 kts 71°
2026-05-05 19:45 37.00622 -111.69555 36777 ft 500 kts 71°
2026-05-05 19:46 37.03084 -111.61476 36779 ft 499 kts 71°
2026-05-05 19:46 37.05558 -111.53334 36879 ft 499 kts 71°
2026-05-05 19:47 37.08022 -111.45198 36871 ft 499 kts 71°
2026-05-05 19:47 37.10470 -111.37096 36845 ft 499 kts 71°
2026-05-05 19:48 37.12910 -111.28995 36830 ft 499 kts 71°
2026-05-05 19:48 37.14947 -111.22212 36811 ft 499 kts 71°
2026-05-05 19:49 37.17801 -111.12683 36768 ft 499 kts 71°
2026-05-05 19:49 37.20240 -111.04515 36796 ft 504 kts 71°
2026-05-05 19:50 37.22679 -110.96327 36762 ft 496 kts 71°
2026-05-05 19:50 37.25071 -110.88262 36773 ft 496 kts 71°
2026-05-05 19:51 37.27480 -110.80123 36746 ft 496 kts 71°
2026-05-05 19:51 37.29894 -110.71941 36764 ft 501 kts 71°
2026-05-05 19:52 37.32315 -110.63712 36757 ft 507 kts 71°
2026-05-05 19:52 37.34762 -110.55368 36753 ft 508 kts 71°
2026-05-05 19:53 37.37188 -110.47073 36743 ft 507 kts 71°
2026-05-05 19:53 37.39628 -110.38701 36769 ft 512 kts 71°
2026-05-05 19:54 37.42065 -110.30316 36741 ft 511 kts 72°
2026-05-05 19:54 37.44501 -110.21907 36758 ft 511 kts 72°
2026-05-05 19:55 37.46525 -110.14900 36772 ft 511 kts 72°
2026-05-05 19:55 37.49363 -110.05046 36779 ft 516 kts 72°
2026-05-05 19:56 37.51794 -109.96578 36758 ft 516 kts 72°
2026-05-05 19:56 37.54238 -109.88039 36776 ft 516 kts 72°
2026-05-05 19:57 37.56654 -109.79565 36748 ft 516 kts 72°
2026-05-05 19:57 37.58696 -109.72396 36697 ft 520 kts 72°
2026-05-05 19:57 37.60312 -109.66689 36937 ft 521 kts 72°
2026-05-05 19:58 37.61519 -109.62429 36929 ft 522 kts 72°
2026-05-05 19:58 37.63959 -109.53790 36943 ft 521 kts 72°
2026-05-05 19:59 37.66375 -109.45212 36923 ft 521 kts 72°
2026-05-05 19:59 37.68812 -109.36536 36908 ft 525 kts 72°
2026-05-05 20:00 37.71231 -109.27901 36853 ft 524 kts 72°
2026-05-05 20:00 37.73661 -109.19196 36804 ft 524 kts 72°
2026-05-05 20:01 37.76085 -109.10487 36758 ft 525 kts 72°
2026-05-05 20:01 37.78497 -109.01793 36801 ft 528 kts 72°
2026-05-05 20:02 37.80961 -108.93089 36765 ft 523 kts 67°
2026-05-05 20:02 37.83973 -108.84749 36765 ft 524 kts 67°
2026-05-05 20:03 37.86941 -108.76290 36736 ft 524 kts 68°
2026-05-05 20:03 37.89868 -108.67855 36750 ft 527 kts 67°
2026-05-05 20:04 37.92812 -108.59362 36753 ft 528 kts 68°
2026-05-05 20:04 37.95762 -108.50829 36756 ft 528 kts 68°
2026-05-05 20:05 37.98702 -108.42303 36783 ft 528 kts 68°
2026-05-05 20:05 38.01636 -108.33765 36768 ft 532 kts 68°
2026-05-05 20:06 38.04600 -108.25120 36762 ft 533 kts 68°
2026-05-05 20:06 38.07525 -108.16557 36744 ft 532 kts 68°
2026-05-05 20:07 38.10466 -108.07928 36773 ft 533 kts 68°
2026-05-05 20:07 38.13408 -107.99268 36759 ft 532 kts 68°
2026-05-05 20:08 38.16324 -107.90660 36772 ft 532 kts 68°
2026-05-05 20:08 38.19253 -107.81988 36778 ft 533 kts 68°
2026-05-05 20:09 38.22174 -107.73313 36776 ft 532 kts 68°
2026-05-05 20:09 38.25055 -107.64731 36745 ft 530 kts 68°
2026-05-05 20:10 38.27952 -107.56078 36747 ft 530 kts 68°
2026-05-05 20:10 38.30836 -107.47435 36735 ft 530 kts 68°
2026-05-05 20:11 38.33715 -107.38781 36745 ft 531 kts 68°
2026-05-05 20:11 38.36592 -107.30108 36753 ft 532 kts 68°
2026-05-05 20:12 38.39459 -107.21439 36795 ft 533 kts 68°
2026-05-05 20:12 38.42333 -107.12734 36833 ft 532 kts 68°
2026-05-05 20:13 38.45162 -107.04040 36874 ft 532 kts 70°
2026-05-05 20:13 38.47849 -106.95187 36892 ft 535 kts 70°
2026-05-05 20:14 38.50567 -106.86279 36715 ft 537 kts 70°
2026-05-05 20:14 38.53251 -106.77456 36727 ft 536 kts 70°
2026-05-05 20:15 38.55949 -106.68559 36698 ft 536 kts 70°
2026-05-05 20:15 38.58651 -106.59621 36716 ft 540 kts 70°
2026-05-05 20:16 38.61341 -106.50697 36682 ft 539 kts 70°
2026-05-05 20:16 38.64038 -106.41718 36761 ft 540 kts 70°
2026-05-05 20:17 38.66697 -106.32834 36697 ft 534 kts 70°
2026-05-05 20:17 38.69364 -106.23890 36877 ft 538 kts 69°
2026-05-05 20:18 38.72011 -106.14971 36991 ft 537 kts 70°
2026-05-05 20:18 38.74676 -106.06000 36872 ft 539 kts 70°
2026-05-05 20:19 38.77338 -105.96988 36844 ft 541 kts 70°
2026-05-05 20:19 38.78658 -105.92511 36604 ft 543 kts 70°
2026-05-05 20:19 38.79542 -105.89507 36618 ft 544 kts 70°
2026-05-05 20:20 38.82663 -105.78873 36614 ft 543 kts 70°
2026-05-05 20:20 38.85310 -105.69820 36622 ft 543 kts 70°
2026-05-05 20:21 38.87948 -105.60769 36645 ft 544 kts 70°
2026-05-05 20:21 38.90598 -105.51646 36653 ft 545 kts 70°
2026-05-05 20:22 38.93244 -105.42503 36717 ft 545 kts 70°
2026-05-05 20:22 38.95867 -105.33412 36787 ft 545 kts 70°
2026-05-05 20:23 38.98503 -105.24241 36782 ft 546 kts 70°
2026-05-05 20:23 39.01123 -105.15097 36858 ft 547 kts 70°
2026-05-05 20:24 39.03751 -105.05892 36908 ft 547 kts 71°
2026-05-05 20:24 39.06356 -104.96738 36986 ft 546 kts 71°
2026-05-05 20:25 39.08957 -104.87560 36955 ft 546 kts 71°
2026-05-05 20:25 39.11563 -104.78335 36960 ft 548 kts 71°
2026-05-05 20:26 39.14169 -104.69079 36959 ft 548 kts 71°
2026-05-05 20:26 39.16747 -104.59888 36963 ft 548 kts 71°
2026-05-05 20:27 39.19338 -104.50618 36963 ft 548 kts 71°
2026-05-05 20:27 39.21917 -104.41359 36957 ft 548 kts 71°
2026-05-05 20:28 39.24472 -104.32150 36957 ft 548 kts 71°
2026-05-05 20:28 39.27026 -104.22915 36953 ft 548 kts 71°
2026-05-05 20:29 39.29597 -104.13585 36962 ft 552 kts 71°
2026-05-05 20:29 39.32159 -104.04254 36970 ft 553 kts 71°
2026-05-05 20:30 39.34722 -103.94883 36982 ft 553 kts 71°
2026-05-05 20:30 39.37277 -103.85509 36989 ft 553 kts 71°
2026-05-05 20:31 39.39818 -103.76150 36968 ft 555 kts 72°
2026-05-05 20:31 39.42376 -103.66696 36958 ft 555 kts 72°
2026-05-05 20:32 39.44903 -103.57320 36961 ft 555 kts 72°
2026-05-05 20:32 39.47450 -103.47835 36975 ft 554 kts 72°
2026-05-05 20:33 39.49963 -103.38440 36979 ft 555 kts 72°
2026-05-05 20:33 39.52483 -103.28985 36971 ft 555 kts 72°
2026-05-05 20:34 39.54985 -103.19564 36989 ft 555 kts 72°
2026-05-05 20:34 39.57498 -103.10064 36974 ft 556 kts 72°
2026-05-05 20:35 39.59997 -103.00579 36999 ft 558 kts 72°
2026-05-05 20:35 39.62503 -102.91034 36993 ft 558 kts 72°
2026-05-05 20:36 39.64986 -102.81538 36999 ft 558 kts 72°
2026-05-05 20:36 39.67481 -102.71960 36995 ft 560 kts 72°
2026-05-05 20:37 39.69974 -102.62352 37013 ft 561 kts 72°
2026-05-05 20:37 39.72458 -102.52741 37013 ft 561 kts 72°
2026-05-05 20:38 39.74923 -102.43170 37013 ft 561 kts 72°
2026-05-05 20:38 39.77397 -102.33522 37015 ft 563 kts 73°
2026-05-05 20:39 39.79859 -102.23885 37017 ft 563 kts 73°
2026-05-05 20:39 39.81912 -102.15816 37030 ft 563 kts 73°
2026-05-05 20:40 39.84771 -102.04540 37082 ft 563 kts 73°
2026-05-05 20:40 39.87221 -101.94835 37022 ft 564 kts 73°
2026-05-05 20:41 39.89253 -101.86755 37037 ft 564 kts 73°
2026-05-05 20:41 39.91691 -101.77022 37028 ft 564 kts 73°
2026-05-05 20:42 39.94120 -101.67292 37020 ft 564 kts 73°
2026-05-05 20:42 39.96551 -101.57509 37049 ft 568 kts 73°
2026-05-05 20:43 39.98965 -101.47756 37046 ft 567 kts 73°
2026-05-05 20:43 40.01381 -101.37953 37050 ft 568 kts 73°
2026-05-05 20:44 40.03795 -101.28122 37046 ft 568 kts 73°
2026-05-05 20:44 40.06192 -101.18322 37071 ft 570 kts 73°
2026-05-05 20:45 40.09803 -101.03494 37056 ft 569 kts 73°
2026-05-05 20:45 40.12181 -100.93682 37056 ft 570 kts 73°
2026-05-05 20:46 40.14568 -100.83789 37056 ft 569 kts 73°
2026-05-05 20:46 40.16931 -100.73955 37055 ft 569 kts 73°
2026-05-05 20:47 40.19301 -100.64055 37055 ft 569 kts 73°
2026-05-05 20:47 40.21526 -100.54106 37042 ft 570 kts 75°
2026-05-05 20:48 40.23718 -100.44160 37062 ft 572 kts 75°
2026-05-05 20:48 40.25926 -100.34142 37055 ft 572 kts 75°
2026-05-05 20:49 40.28124 -100.24124 37036 ft 572 kts 75°
2026-05-05 20:49 40.30306 -100.14137 37038 ft 572 kts 75°
2026-05-05 20:50 40.32492 -100.04080 37036 ft 573 kts 75°
2026-05-05 20:50 40.34669 -99.94022 37043 ft 573 kts 75°
2026-05-05 20:51 40.36822 -99.84023 37047 ft 573 kts 75°
2026-05-05 20:51 40.38984 -99.73942 37061 ft 574 kts 75°
2026-05-05 20:52 40.41142 -99.63829 37062 ft 574 kts 75°
2026-05-05 20:52 40.43278 -99.53769 37045 ft 574 kts 75°
2026-05-05 20:53 40.45419 -99.43646 37040 ft 574 kts 75°
2026-05-05 20:53 40.47540 -99.33562 37038 ft 576 kts 75°
2026-05-05 20:54 40.49666 -99.23405 37035 ft 575 kts 75°
2026-05-05 20:54 40.51770 -99.13309 37037 ft 575 kts 75°
2026-05-05 20:55 40.53881 -99.03128 37041 ft 576 kts 75°
2026-05-05 20:55 40.55983 -98.92941 37044 ft 576 kts 75°
2026-05-05 20:56 40.58058 -98.82838 37050 ft 575 kts 75°
2026-05-05 20:56 40.60139 -98.72654 37042 ft 575 kts 75°
2026-05-05 20:57 40.62203 -98.62504 37041 ft 576 kts 75°
2026-05-05 20:57 40.64270 -98.52288 37029 ft 576 kts 75°
2026-05-05 20:58 40.66328 -98.42068 37044 ft 577 kts 75°
2026-05-05 20:58 40.68363 -98.31910 37055 ft 577 kts 75°
2026-05-05 20:59 40.70405 -98.21666 37036 ft 576 kts 75°
2026-05-05 20:59 40.72424 -98.11487 37030 ft 577 kts 75°
2026-05-05 21:00 40.74447 -98.01233 37009 ft 577 kts 75°
2026-05-05 21:00 40.76450 -97.91032 37006 ft 577 kts 75°
2026-05-05 21:01 40.78456 -97.80760 37013 ft 576 kts 75°
2026-05-05 21:01 40.80440 -97.70553 37001 ft 576 kts 75°
2026-05-05 21:02 40.82421 -97.60304 37000 ft 576 kts 75°
2026-05-05 21:02 40.84397 -97.50031 37000 ft 576 kts 75°
2026-05-05 21:03 40.86367 -97.39729 37003 ft 576 kts 75°
2026-05-05 21:03 40.88313 -97.29507 37005 ft 576 kts 76°
2026-05-05 21:04 40.90262 -97.19216 37002 ft 576 kts 76°
2026-05-05 21:04 40.92189 -97.08978 37015 ft 576 kts 76°
2026-05-05 21:05 40.94120 -96.98671 36996 ft 576 kts 76°
2026-05-05 21:05 40.96029 -96.88425 37004 ft 576 kts 76°
2026-05-05 21:06 40.97944 -96.78097 36998 ft 576 kts 76°
2026-05-05 21:06 40.99828 -96.67878 37005 ft 576 kts 76°
2026-05-05 21:07 41.01723 -96.57537 36995 ft 576 kts 76°
2026-05-05 21:07 41.03611 -96.47190 36986 ft 576 kts 76°
2026-05-05 21:08 41.05475 -96.36906 36992 ft 576 kts 76°
2026-05-05 21:08 41.07343 -96.26552 36992 ft 576 kts 76°
2026-05-05 21:09 41.09189 -96.16268 36990 ft 576 kts 76°
2026-05-05 21:09 41.11047 -96.05874 36978 ft 576 kts 76°
2026-05-05 21:10 41.12880 -95.95561 36966 ft 577 kts 76°
2026-05-05 21:10 41.14706 -95.85229 36957 ft 577 kts 76°